Regional Weather Roundup
Issued by NWS Burlington, VT

Current Version | Previous Version | Text Only | Print | Product List | Glossary Off
Versions: 1 2 3 4 5 6 7 8 9 10 11 12 13 14 15 16 17 18 19 20 21 22 23 24 25 26 27 28 29 30 31 32 33 34 35 36 37 38 39 40 41 42 43 44 45 46 47 48 49 50

000
ASUS41 KBTV 192330
RWRBTV
VERMONT REGIONAL WEATHER ROUNDUP
NATIONAL WEATHER SERVICE BURLINGTON VT
700 PM EDT FRI SEP 19 2014

NOTE: "FAIR" INDICATES FEW OR NO CLOUDS BELOW 12,000 FEET WITH NO
SIGNIFICANT WEATHER AND/OR OBSTRUCTIONS TO VISIBILITY.

* THESE REPORTS ARE NOT UNDER NWS QUALITY CONTROL AND/OR DO NOT
  REPORT WEATHER SUCH AS PRECIPITATION AND FOG.

VTZ001>019-200000-
_____VERMONT_____


CITY           SKY/WX    TMP DP  RH WIND       PRES   REMARKS
BURLINGTON     PTCLDY    52  35  52 S5        30.32R
MONTPELIER     CLEAR     46  29  51 S7        30.36S
MORRISVILLE    CLEAR     48  32  53 CALM      30.33R
ST. JOHNSBURY*   N/A     50  33  52 MISG      30.32R
MIDDLEBURY*    FAIR      46  41  81 CALM      30.32R
RUTLAND*       CLEAR     48  34  57 SE6       30.33R
SPRINGFIELD    CLEAR     49  39  68 CALM      30.35S
HIGHGATE*      FAIR      46  36  69 SE3       30.30F
NEWPORT*       FAIR      46  29  51 S5        30.32S
BENNINGTON     CLEAR     50  35  56 SE8       30.33R
SUTTON*          N/A     43 N/A N/A MISG        N/A
MT. MANSFIELD*   N/A     37 N/A N/A S7          N/A

_____LAKE CHAMPLAIN_____


CITY           SKY/WX    TMP DP  RH WIND       PRES   REMARKS
BURTON ISLAND*   N/A     55  37  50 E9          N/A
COLCHESTER RF*   N/A     57  36  44 S21         N/A
DIAMOND ISL*     N/A     55  36  47 S9          N/A

$$

NYZ007-026>031-035-052-083-200000-
_____NORTHERN NEW YORK_____


CITY           SKY/WX    TMP DP  RH WIND       PRES   REMARKS
PLATTSBURGH    CLEAR     48  37  65 S5        30.30S
SARANAC LAKE   CLEAR     47  33  58 SW3       30.26R
MASSENA        PTCLDY    52  38  58 CALM      30.27F
OGDENSBURG*    CLEAR     46  41  81 CALM      30.25F
POTSDAM*       CLEAR     46  43  87 E3        30.26F
WATERTOWN      CLEAR     51  40  65 CALM      30.26F
FT DRUM        CLEAR     52  40  63 W2        30.26S HAZE
ALBANY         PTCLDY    57  41  55 CALM      30.32S
GLENS FALLS    CLEAR     49  41  74 CALM      30.32F

$$
NHZ002-005-011-200000-
_____NEW HAMPSHIRE_____


CITY           SKY/WX    TMP DP  RH WIND       PRES   REMARKS
LEBANON        CLEAR     49  38  65 S5        30.34S
KEENE          CLEAR     46  34  61 S3        30.38R
MT WASHINGTON  PTCLDY    36  27  69 SW15        N/A
PLYMOUTH       FAIR      42  41  95 CALM      30.37S
WHITEFIELD     CLEAR     48  34  58 SW3       30.33R

$$

_____REGIONAL QUEBEC LOCATIONS_____


CITY           SKY/WX    TMP DP  RH WIND       PRES   REMARKS
MONTREAL       PTCLDY    52  30  43 SE7       30.28F
QUEBEC CITY    MOCLDY    46  36  66 CALM      30.29F
SHERBROOKE     CLEAR     43  34  70 CALM      30.31R

_____REGIONAL ONTARIO LOCATIONS_____


CITY           SKY/WX    TMP DP  RH WIND       PRES   REMARKS
OTTAWA         MOCLDY    46  36  66 SE5       30.25F

______KEY______
VSB  - VISIBILITY IN MILES
WCI  - WIND CHILL INDEX
HX   - HEAT INDEX
$$
NNNN



USA.gov is the U.S. government's official web portal to all federal, state and local government web resources and services.